Detroit, MI

5:19 PM EST on February 10, 2016 (GMT -0500)
Detroit Metro Wayne County

Weather History for KDTW - April, 2013

Change the Weather History Date:

Saturday, April 20, 2013

  Actual Average Record
Temperature  
Mean Temperature 37 °F 51 °F  
Max Temperature 42 °F 61 °F 82 °F (1985)
Min Temperature 31 °F 41 °F 20 °F (1897)
Degree Days  
Heating Degree Days 28 14  
Month to date heating degree days 407 355  
Since 1 July heating degree days 5625 5770  
Cooling Degree Days 0 0  
Month to date cooling degree days 0 0  
Year to date cooling degree days 0 0  
Moisture  
Dew Point 22 °F    
Average Humidity 60    
Maximum Humidity 75    
Minimum Humidity 44    
Precipitation  
Precipitation 0.02 in 0.10 in 3.58 in (2000)
Month to date precipitation 4.21 1.93  
Year to date precipitation 11.23 8.19  
Snow  
Snow 0.10 in 0.00 in 1.20 in (1947)
Month to date snowfall 0.1 1.5  
Since 1 July snowfall 47.7 42.3  
Snow Depth 0.00 in    
Sea Level Pressure  
Sea Level Pressure 30.09 in    
Wind  
Wind Speed 12 mph (West)    
Max Wind Speed 26 mph    
Max Gust Speed 35 mph    
Visibility 9 miles    
Events Snow    
T = Trace of Precipitation, MM = Missing Value Source: NWS Daily Summary

Daily Weather History Graph

Daily Weather History Graph

Search for Another Location

Airport or City:

Trip Planner

Search our weather history database for the weather conditions in past years. The results will help you decide how hot, cold, wet, or windy it might be!

Date:

Astronomy

Apr. 20, 2013 Rise Set
Actual Time 6:44 AM EDT 8:20 PM EDT
Civil Twilight 6:14 AM EDT 8:50 PM EDT
Nautical Twilight 5:39 AM EDT 9:26 PM EDT
Astronomical Twilight 5:01 AM EDT 10:04 PM EDT
Moon 2:58 PM EDT (4/20) 3:39 AM EDT (4/20)
Length of Visible Light 14h 35m
Length of Day
13h 36m
Waxing Gibbous, 71% of the Moon is Illuminated
Apr 20
Waxing Gibbous
Apr 25
Full
May 2
Last Quarter
May 9
New
May 18
First Quarter

Hourly Weather History & Observations

Time (EDT) Temp. Windchill Dew Point Humidity Pressure Visibility Wind Dir Wind Speed Gust Speed Precip Events Conditions
12:53 AM 37.9 °F 28.2 °F 28.9 °F 70% 29.80 in 9.0 mi SSW 18.4 mph - 0.00 in Snow Light Snow
1:07 AM 37.4 °F 27.5 °F 28.4 °F 70% 29.79 in 7.0 mi SW 18.4 mph 25.3 mph 0.00 in Snow Light Snow
1:53 AM 37.0 °F 27.4 °F 30.0 °F 76% 29.82 in 10.0 mi SW 17.3 mph - 0.00 in   Overcast
1:58 AM 37.4 °F 26.6 °F 30.2 °F 75% 29.81 in 2.5 mi West 21.9 mph 31.1 mph 0.00 in Snow Light Snow
2:00 AM 35.6 °F 24.5 °F 28.4 °F 75% 29.81 in 1.0 mi West 20.7 mph 31.1 mph 0.00 in Snow Light Snow
2:15 AM 33.8 °F 25.3 °F 28.4 °F 81% 29.81 in 6.0 mi WSW 11.5 mph - N/A Snow Light Snow
2:24 AM 33.8 °F 25.3 °F 28.4 °F 81% 29.82 in 10.0 mi SW 11.5 mph - 0.01 in   Overcast
2:53 AM 35.1 °F 27.4 °F 28.0 °F 76% 29.83 in 9.0 mi SW 10.4 mph - 0.01 in   Overcast
3:53 AM 35.1 °F 26.9 °F 28.0 °F 76% 29.86 in 10.0 mi WSW 11.5 mph - N/A   Overcast
4:27 AM 35.6 °F 27.1 °F 26.6 °F 70% 29.86 in 4.0 mi West 12.7 mph - 0.00 in Snow Light Snow
4:53 AM 34.0 °F 23.0 °F 24.1 °F 67% 29.89 in 9.0 mi West 18.4 mph 24.2 mph 0.01 in   Overcast
5:53 AM 33.1 °F 22.2 °F 21.9 °F 64% 29.92 in 10.0 mi West 17.3 mph 21.9 mph N/A   Scattered Clouds
6:53 AM 32.0 °F 22.5 °F 21.0 °F 64% 29.96 in 10.0 mi West 12.7 mph - N/A   Scattered Clouds
7:53 AM 33.1 °F 22.6 °F 19.0 °F 56% 30.01 in 10.0 mi West 16.1 mph 26.5 mph N/A   Mostly Cloudy
8:53 AM 34.0 °F 23.0 °F 17.1 °F 50% 30.06 in 10.0 mi West 18.4 mph 27.6 mph N/A   Scattered Clouds
9:53 AM 35.1 °F 25.2 °F 18.0 °F 50% 30.10 in 10.0 mi West 16.1 mph - N/A   Scattered Clouds
10:53 AM 36.0 °F 26.3 °F 19.0 °F 50% 30.13 in 10.0 mi West 16.1 mph 24.2 mph N/A   Mostly Cloudy
11:53 AM 37.0 °F 27.4 °F 19.9 °F 50% 30.17 in 10.0 mi West 17.3 mph 21.9 mph N/A   Mostly Cloudy
12:53 PM 37.9 °F 29.2 °F 19.9 °F 48% 30.19 in 10.0 mi West 15.0 mph 23.0 mph N/A   Mostly Cloudy
1:53 PM 39.9 °F 32.5 °F 19.9 °F 45% 30.22 in 10.0 mi West 12.7 mph 24.2 mph N/A   Mostly Cloudy
2:53 PM 41.0 °F 33.9 °F 21.9 °F 47% 30.24 in 10.0 mi West 12.7 mph 23.0 mph N/A   Mostly Cloudy
3:53 PM 39.9 °F 32.1 °F 21.0 °F 47% 30.26 in 10.0 mi West 13.8 mph 21.9 mph N/A   Mostly Cloudy
4:53 PM 41.0 °F 33.1 °F 21.0 °F 45% 30.28 in 10.0 mi West 15.0 mph 21.9 mph N/A   Overcast
5:53 PM 41.0 °F 33.9 °F 21.0 °F 45% 30.31 in 10.0 mi WNW 12.7 mph 20.7 mph N/A   Overcast
6:53 PM 39.9 °F 32.5 °F 19.0 °F 43% 30.33 in 10.0 mi WNW 12.7 mph - N/A   Overcast
7:53 PM 37.9 °F 30.5 °F 19.0 °F 47% 30.35 in 10.0 mi WNW 11.5 mph - 0.00 in Snow Light Snow
8:53 PM 37.0 °F 31.6 °F 17.1 °F 44% 30.39 in 10.0 mi West 6.9 mph - 0.00 in   Mostly Cloudy
9:53 PM 34.0 °F 28.8 °F 18.0 °F 52% 30.43 in 10.0 mi NW 5.8 mph - N/A   Scattered Clouds
10:53 PM 33.1 °F 28.7 °F 19.0 °F 56% 30.45 in 10.0 mi WNW 4.6 mph - N/A   Partly Cloudy
11:53 PM 34.0 °F 31.0 °F 19.0 °F 54% 30.47 in 10.0 mi NW 3.5 mph - N/A   Clear